| time (UTC) | temp F | wind direction | speed knots | gust knots | rain 1hr in | rain 24hr in | rain mn in | humidity % | barometer mb |
| 20260508100216 | 64 | 158 | 5.2 | 10.4 | 0.00 | 0.00 | 0.00 | 80 | 1014.5 |
| 20260508095217 | 64 | 113 | 4.3 | 7.8 | 0.00 | 0.00 | 0.00 | 80 | 1014.3 |
| 20260508094219 | 64 | 135 | 4.3 | 10.4 | 0.00 | 0.00 | 0.00 | 79 | 1014.3 |
| 20260508093217 | 65 | 90 | 3.5 | 8.7 | 0.00 | 0.00 | 0.00 | 77 | 1014.3 |
| 20260508092217 | 66 | 135 | 4.3 | 9.6 | 0.00 | 0.00 | 0.00 | 75 | 1014.2 |
| 20260508091237 | 66 | 113 | 7.0 | 10.4 | 0.00 | 0.00 | 0.00 | 73 | 1014.2 |
| 20260508090217 | 66 | 90 | 7.0 | 13.0 | 0.00 | 0.00 | 0.00 | 74 | 1014.2 |
| 20260508085218 | 65 | 90 | 5.2 | 10.4 | 0.00 | 0.00 | 0.00 | 73 | 1014.0 |
| 20260508084237 | 66 | 113 | 6.1 | 12.2 | 0.00 | 0.00 | 0.00 | 73 | 1014.0 |
| 20260508083217 | 65 | 113 | 2.6 | 7.0 | 0.00 | 0.00 | 0.00 | 74 | 1014.0 |
| 20260508082217 | 66 | 90 | 5.2 | 8.7 | 0.00 | 0.00 | 0.00 | 72 | 1013.9 |
| 20260508081217 | 66 | 135 | 5.2 | 10.4 | 0.00 | 0.00 | 0.00 | 72 | 1013.9 |
| 20260508080217 | 66 | 135 | 4.3 | 7.0 | 0.00 | 0.00 | 0.00 | 73 | 1013.7 |
| 20260508075217 | 66 | 90 | 4.3 | 12.2 | 0.00 | 0.00 | 0.00 | 72 | 1013.6 |
| 20260508074218 | 66 | 113 | 3.5 | 7.8 | 0.00 | 0.00 | 0.00 | 71 | 1013.7 |
| 20260508073217 | 65 | 113 | 7.8 | 11.3 | 0.00 | 0.00 | 0.00 | 70 | 1013.6 |
| 20260508072218 | 65 | 113 | 1.7 | 5.2 | 0.00 | 0.00 | 0.00 | 70 | 1013.7 |
| 20260508071218 | 65 | 113 | 4.3 | 7.0 | 0.00 | 0.00 | 0.00 | 69 | 1013.9 |
| 20260508070217 | 64 | 113 | 2.6 | 4.3 | 0.00 | 0.00 | 0.00 | 69 | 1014.0 |
| 20260508065237 | 63 | 0.0 | 0.9 | 0.00 | 0.00 | 0.00 | 68 | 1013.8 | |
| 20260508064218 | 63 | 68 | 5.2 | 7.8 | 0.00 | 0.00 | 0.00 | 68 | 1013.6 |
| 20260508063217 | 63 | 68 | 4.3 | 7.0 | 0.00 | 0.00 | 0.00 | 68 | 1013.5 |
| 20260508062218 | 62 | 90 | 5.2 | 8.7 | 0.00 | 0.00 | 0.00 | 69 | 1013.3 |
| 20260508061217 | 61 | 90 | 2.6 | 5.2 | 0.00 | 0.00 | 0.00 | 70 | 1013.4 |
| 20260508060217 | 61 | 45 | 0.9 | 2.6 | 0.00 | 0.00 | 0.00 | 70 | 1013.1 |
| 20260508055217 | 61 | 0.0 | 0.0 | 0.00 | 0.00 | 0.00 | 70 | 1013.1 | |
| 20260508054216 | 61 | 0.0 | 0.9 | 0.00 | 0.00 | 0.00 | 70 | 1012.9 | |
| 20260508053217 | 61 | 45 | 1.7 | 2.6 | 0.00 | 0.00 | 0.00 | 71 | 1012.6 |
| 20260508052217 | 61 | 90 | 1.7 | 2.6 | 0.00 | 0.00 | 0.00 | 71 | 1012.5 |
| 20260508051217 | 61 | 68 | 1.7 | 3.5 | 0.00 | 0.00 | 0.00 | 72 | 1012.6 |
| 20260508050218 | 61 | 68 | 3.5 | 3.5 | 0.00 | 0.00 | 0.00 | 72 | 1012.7 |
| 20260508045216 | 61 | 45 | 0.9 | 2.6 | 0.00 | 0.00 | 0.00 | 73 | 1012.7 |
| 20260508044217 | 61 | 45 | 2.6 | 2.6 | 0.00 | 0.00 | 0.00 | 73 | 1012.5 |
| 20260508043258 | 61 | 0.0 | 0.9 | 0.00 | 0.00 | 0.00 | 73 | 1012.8 | |
| 20260508042217 | 61 | 90 | 3.5 | 5.2 | 0.00 | 0.00 | 0.00 | 73 | 1012.4 |
| 20260508041216 | 61 | 68 | 6.1 | 7.8 | 0.00 | 0.00 | 0.00 | 74 | 1012.7 |
| 20260508040216 | 62 | 68 | 2.6 | 4.3 | 0.00 | 0.00 | 0.00 | 74 | 1012.9 |
| 20260508035216 | 62 | 68 | 1.7 | 2.6 | 0.00 | 0.00 | 0.00 | 74 | 1013.0 |
| 20260508034216 | 62 | 68 | 2.6 | 4.3 | 0.00 | 0.00 | 0.00 | 74 | 1013.0 |
| 20260508033216 | 62 | 90 | 2.6 | 7.0 | 0.00 | 0.00 | 0.00 | 74 | 1012.9 |
| 20260508032216 | 62 | 68 | 2.6 | 4.3 | 0.00 | 0.00 | 0.00 | 74 | 1012.8 |
| 20260508031216 | 62 | 68 | 4.3 | 5.2 | 0.00 | 0.00 | 0.00 | 74 | 1012.8 |
| 20260508030218 | 62 | 68 | 3.5 | 6.1 | 0.00 | 0.00 | 0.00 | 74 | 1012.7 |
| 20260508025217 | 62 | 90 | 6.1 | 8.7 | 0.00 | 0.00 | 0.00 | 74 | 1012.8 |
| 20260508024219 | 62 | 90 | 3.5 | 11.3 | 0.00 | 0.00 | 0.00 | 74 | 1012.8 |
| 20260508023216 | 62 | 90 | 6.1 | 9.6 | 0.00 | 0.00 | 0.00 | 74 | 1012.9 |
| 20260508022236 | 62 | 90 | 4.3 | 7.8 | 0.00 | 0.00 | 0.00 | 74 | 1012.9 |
| 20260508021216 | 62 | 90 | 4.3 | 7.0 | 0.00 | 0.00 | 0.00 | 74 | 1012.9 |
| 20260508020216 | 62 | 135 | 3.5 | 6.1 | 0.00 | 0.00 | 0.00 | 73 | 1012.8 |
| 20260508015216 | 62 | 135 | 4.3 | 8.7 | 0.00 | 0.00 | 0.00 | 71 | 1012.7 |
| 20260508014217 | 62 | 90 | 0.9 | 1.7 | 0.00 | 0.00 | 0.00 | 71 | 1012.6 |
| 20260508013216 | 62 | 113 | 1.7 | 2.6 | 0.00 | 0.00 | 0.00 | 72 | 1012.5 |
| 20260508012216 | 62 | 90 | 4.3 | 7.0 | 0.00 | 0.00 | 0.00 | 74 | 1012.6 |
| 20260508011216 | 63 | 113 | 3.5 | 8.7 | 0.00 | 0.00 | 0.00 | 74 | 1012.9 |
| 20260508010216 | 63 | 135 | 1.7 | 4.3 | 0.00 | 0.00 | 0.00 | 73 | 1013.0 |
| 20260508005217 | 62 | 113 | 2.6 | 4.3 | 0.00 | 0.00 | 0.00 | 70 | 1012.9 |
| 20260508004216 | 62 | 113 | 0.9 | 1.7 | 0.00 | 0.00 | 0.00 | 68 | 1013.0 |
| 20260508003216 | 62 | 90 | 4.3 | 6.1 | 0.00 | 0.00 | 0.00 | 69 | 1012.9 |
| 20260508002216 | 62 | 68 | 1.7 | 2.6 | 0.00 | 0.00 | 0.00 | 70 | 1012.9 |
| 20260508001216 | 62 | 45 | 0.9 | 1.7 | 0.00 | 0.00 | 0.00 | 71 | 1013.1 |
| 20260508000219 | 62 | 90 | 2.6 | 4.3 | 0.00 | 0.00 | 0.00 | 72 | 1013.4 |
| 20260507235237 | 62 | 90 | 4.3 | 6.1 | 0.00 | 0.00 | 0.00 | 73 | 1013.5 |
| 20260507234216 | 63 | 45 | 3.5 | 6.1 | 0.00 | 0.00 | 0.00 | 73 | 1013.6 |
| 20260507233216 | 63 | 68 | 5.2 | 7.0 | 0.00 | 0.00 | 0.00 | 74 | 1013.7 |
| 20260507232216 | 63 | 45 | 1.7 | 3.5 | 0.00 | 0.00 | 0.00 | 73 | 1013.7 |
| 20260507231216 | 63 | 68 | 4.3 | 7.0 | 0.00 | 0.00 | 0.00 | 73 | 1013.7 |
| 20260507230217 | 63 | 68 | 6.1 | 9.6 | 0.00 | 0.00 | 0.00 | 72 | 1013.9 |
| 20260507225216 | 63 | 68 | 4.3 | 6.1 | 0.00 | 0.00 | 0.00 | 73 | 1013.9 |
| 20260507224216 | 64 | 68 | 2.6 | 7.0 | 0.00 | 0.00 | 0.00 | 72 | 1014.0 |
| 20260507223217 | 64 | 113 | 3.5 | 7.0 | 0.00 | 0.00 | 0.00 | 70 | 1013.9 |
| 20260507222215 | 64 | 90 | 2.6 | 4.3 | 0.00 | 0.00 | 0.00 | 67 | 1013.9 |
| 20260507221256 | 64 | 113 | 2.6 | 6.1 | 0.00 | 0.00 | 0.00 | 66 | 1013.9 |
| 20260507220215 | 64 | 90 | 4.3 | 8.7 | 0.00 | 0.00 | 0.00 | 64 | 1013.9 |
| 20260507215218 | 64 | 113 | 4.3 | 7.8 | 0.00 | 0.00 | 0.00 | 63 | 1013.7 |
| 20260507214217 | 64 | 113 | 1.7 | 3.5 | 0.00 | 0.00 | 0.00 | 60 | 1013.4 |
| 20260507213217 | 64 | 68 | 3.5 | 4.3 | 0.00 | 0.00 | 0.00 | 57 | 1013.5 |
| 20260507212217 | 64 | 45 | 3.5 | 4.3 | 0.00 | 0.00 | 0.00 | 57 | 1013.4 |
| 20260507211217 | 64 | 90 | 3.5 | 5.2 | 0.00 | 0.00 | 0.00 | 59 | 1013.2 |
| 20260507210217 | 65 | 68 | 4.3 | 6.1 | 0.00 | 0.00 | 0.00 | 65 | 1013.1 |
| 20260507205217 | 64 | 90 | 2.6 | 3.5 | 0.00 | 0.00 | 0.00 | 67 | 1013.2 |
| 20260507204217 | 64 | 90 | 1.7 | 3.5 | 0.00 | 0.00 | 0.00 | 66 | 1013.1 |
| 20260507203217 | 65 | 90 | 2.6 | 3.5 | 0.00 | 0.00 | 0.00 | 65 | 1013.1 |
| 20260507202217 | 65 | 90 | 4.3 | 7.0 | 0.00 | 0.00 | 0.00 | 64 | 1013.1 |
| 20260507201259 | 66 | 135 | 0.9 | 2.6 | 0.00 | 0.00 | 0.00 | 62 | 1013.0 |
| 20260507200218 | 66 | 135 | 1.7 | 2.6 | 0.00 | 0.00 | 0.00 | 61 | 1012.9 |
| 20260507195217 | 66 | 90 | 3.5 | 6.1 | 0.00 | 0.00 | 0.00 | 58 | 1012.7 |
| 20260507194239 | 66 | 113 | 1.7 | 3.5 | 0.00 | 0.00 | 0.00 | 57 | 1012.6 |
| 20260507193217 | 66 | 113 | 0.9 | 1.7 | 0.00 | 0.00 | 0.00 | 55 | 1012.5 |
| 20260507192216 | 66 | 113 | 0.9 | 2.6 | 0.00 | 0.00 | 0.00 | 53 | 1012.4 |
| 20260507191217 | 67 | 158 | 1.7 | 4.3 | 0.00 | 0.00 | 0.00 | 52 | 1012.4 |
| 20260507190216 | 67 | 135 | 1.7 | 2.6 | 0.00 | 0.00 | 0.00 | 50 | 1012.4 |
| 20260507185338 | 67 | 135 | 0.9 | 1.7 | 0.00 | 0.00 | 0.00 | 47 | 1012.3 |
| 20260507184216 | 68 | 135 | 0.9 | 1.7 | 0.00 | 0.00 | 0.00 | 49 | 1012.2 |
| 20260507183216 | 69 | 158 | 2.6 | 4.3 | 0.00 | 0.00 | 0.00 | 48 | 1012.2 |
| 20260507182216 | 69 | 135 | 0.9 | 2.6 | 0.00 | 0.00 | 0.00 | 46 | 1012.1 |
| 20260507181216 | 70 | 203 | 0.9 | 1.7 | 0.00 | 0.00 | 0.00 | 43 | 1012.2 |
| 20260507180216 | 70 | 158 | 1.7 | 4.3 | 0.00 | 0.00 | 0.00 | 40 | 1012.0 |
| 20260507175216 | 70 | 90 | 2.6 | 5.2 | 0.00 | 0.00 | 0.00 | 40 | 1011.9 |
| 20260507174221 | 71 | 113 | 3.5 | 6.1 | 0.00 | 0.00 | 0.00 | 39 | 1011.7 |
| 20260507173217 | 72 | 113 | 2.6 | 6.1 | 0.00 | 0.00 | 0.00 | 37 | 1011.8 |
| 20260507172216 | 72 | 90 | 3.5 | 6.1 | 0.00 | 0.00 | 0.00 | 37 | 1011.7 |
| 20260507171237 | 72 | 68 | 4.3 | 8.7 | 0.00 | 0.00 | 0.00 | 36 | 1011.8 |
| 20260507170217 | 73 | 158 | 2.6 | 5.2 | 0.00 | 0.00 | 0.00 | 37 | 1011.7 |
| 20260507165217 | 73 | 113 | 3.5 | 6.1 | 0.00 | 0.00 | 0.00 | 35 | 1011.6 |
| 20260507164217 | 74 | 0.0 | 0.9 | 0.00 | 0.00 | 0.00 | 36 | 1011.7 | |
| 20260507163216 | 73 | 180 | 2.6 | 4.3 | 0.00 | 0.00 | 0.00 | 35 | 1011.5 |
| 20260507162216 | 72 | 113 | 1.7 | 5.2 | 0.00 | 0.00 | 0.00 | 37 | 1011.6 |
| 20260507161216 | 72 | 158 | 6.1 | 9.6 | 0.00 | 0.00 | 0.00 | 42 | 1011.7 |
| 20260507160216 | 72 | 158 | 6.1 | 9.6 | 0.00 | 0.00 | 0.00 | 50 | 1011.8 |
| 20260507155216 | 72 | 90 | 1.7 | 5.2 | 0.00 | 0.00 | 0.00 | 54 | 1011.7 |
| 20260507154236 | 72 | 158 | 6.1 | 9.6 | 0.00 | 0.00 | 0.00 | 57 | 1011.8 |
| 20260507153216 | 73 | 158 | 5.2 | 7.8 | 0.00 | 0.00 | 0.00 | 59 | 1011.8 |
| 20260507152216 | 72 | 158 | 4.3 | 7.0 | 0.00 | 0.00 | 0.00 | 61 | 1011.9 |
| 20260507151216 | 72 | 158 | 8.7 | 11.3 | 0.00 | 0.00 | 0.00 | 62 | 1011.9 |
| 20260507150216 | 71 | 158 | 3.5 | 7.0 | 0.00 | 0.00 | 0.00 | 61 | 1011.9 |
| 20260507145216 | 72 | 113 | 6.1 | 12.2 | 0.00 | 0.00 | 0.00 | 64 | 1011.9 |
| 20260507144216 | 72 | 158 | 4.3 | 7.0 | 0.00 | 0.00 | 0.00 | 62 | 1011.9 |
| 20260507143216 | 72 | 158 | 6.1 | 9.6 | 0.00 | 0.00 | 0.00 | 63 | 1012.0 |
| 20260507142216 | 71 | 135 | 4.3 | 8.7 | 0.00 | 0.00 | 0.00 | 63 | 1012.1 |
| 20260507141216 | 71 | 113 | 3.5 | 7.0 | 0.00 | 0.00 | 0.00 | 61 | 1012.3 |
| 20260507140216 | 72 | 68 | 5.2 | 8.7 | 0.00 | 0.00 | 0.00 | 62 | 1012.3 |
| 20260507135216 | 71 | 158 | 5.2 | 9.6 | 0.00 | 0.00 | 0.00 | 64 | 1012.4 |
| 20260507134215 | 70 | 113 | 6.1 | 13.0 | 0.00 | 0.00 | 0.00 | 65 | 1012.6 |
| 20260507133217 | 69 | 90 | 6.1 | 8.7 | 0.00 | 0.00 | 0.00 | 67 | 1012.7 |
| 20260507132216 | 69 | 158 | 3.5 | 6.1 | 0.00 | 0.00 | 0.00 | 70 | 1012.9 |
| 20260507131215 | 69 | 90 | 7.8 | 12.2 | 0.00 | 0.00 | 0.00 | 70 | 1012.8 |
| 20260507130217 | 69 | 90 | 4.3 | 8.7 | 0.00 | 0.00 | 0.00 | 71 | 1012.9 |
| 20260507125215 | 69 | 180 | 4.3 | 8.7 | 0.00 | 0.00 | 0.00 | 71 | 1013.0 |
| 20260507124215 | 69 | 113 | 5.2 | 7.8 | 0.00 | 0.00 | 0.00 | 70 | 1013.1 |
| 20260507123215 | 69 | 158 | 6.1 | 9.6 | 0.00 | 0.00 | 0.00 | 70 | 1013.1 |
| 20260507122216 | 69 | 158 | 9.6 | 12.2 | 0.00 | 0.00 | 0.00 | 70 | 1013.2 |
| 20260507121215 | 69 | 113 | 3.5 | 6.1 | 0.00 | 0.00 | 0.00 | 71 | 1013.2 |
| 20260507120215 | 69 | 90 | 7.8 | 16.5 | 0.00 | 0.00 | 0.00 | 69 | 1013.2 |
| 20260507115215 | 70 | 90 | 7.0 | 11.3 | 0.00 | 0.00 | 0.00 | 70 | 1013.3 |
| 20260507114218 | 69 | 90 | 6.1 | 9.6 | 0.00 | 0.00 | 0.00 | 70 | 1013.4 |
| 20260507113217 | 70 | 158 | 7.8 | 12.2 | 0.00 | 0.00 | 0.00 | 69 | 1013.3 |
| 20260507112217 | 71 | 113 | 6.1 | 9.6 | 0.00 | 0.00 | 0.00 | 64 | 1013.4 |
| 20260507111237 | 71 | 158 | 5.2 | 8.7 | 0.00 | 0.00 | 0.00 | 65 | 1013.3 |
| 20260507110218 | 70 | 180 | 4.3 | 8.7 | 0.00 | 0.00 | 0.00 | 67 | 1013.2 |
| 20260507105217 | 70 | 158 | 3.5 | 6.1 | 0.00 | 0.00 | 0.00 | 64 | 1013.2 |
| 20260507104238 | 69 | 113 | 4.3 | 8.7 | 0.00 | 0.00 | 0.00 | 63 | 1012.9 |
| 20260507103217 | 70 | 158 | 2.6 | 5.2 | 0.00 | 0.00 | 0.00 | 67 | 1013.0 |
| 20260507102217 | 70 | 90 | 6.1 | 8.7 | 0.00 | 0.00 | 0.00 | 68 | 1013.0 |
| 20260507101217 | 69 | 113 | 3.5 | 6.1 | 0.00 | 0.00 | 0.00 | 69 | 1012.8 |